Weather Roundup
Issued by NWS Springfield, MO

Home | Current Version | Previous Version | Text Only | Print | Product List | Glossary On
Versions: 1 2 3 4 5 6 7 8 9 10 11 12 13 14 15 16 17 18 19 20 21 22 23 24 25 26 27 28 29 30 31 32 33 34 35 36 37 38 39 40 41 42 43 44 45 46 47 48 49 50
000
NZUS99 KSGF 230059
HRRSGF

HOURLY WEATHER
NATIONAL WEATHER SERVICE SPRINGFIELD MO
800 PM CDT MON SEP 22 2014

......SGF CWA......

CITY           SKY/WX    TMP DP  RH WIND       PRES   REMARKS
SPRINGFIELD    CLEAR     66  48  52 E5        30.23R
JOPLIN         MOCLDY    62  55  77 E3        30.22S
WEST PLAINS    CLEAR     59  51  75 CALM      30.24R
ROLLA          CLEAR     57  47  69 CALM      30.23R
OSAGE BEACH    CLEAR     57  50  77 NE3       30.23S
BRANSON        PTCLDY    63  50  63 SE5       30.24R

......SURROUNDING SGF CWA......

CITY           SKY/WX    TMP DP  RH WIND       PRES   REMARKS
CHANUTE        PTCLDY    65  55  70 E6        30.21S
PARSONS        CLEAR     61  56  83 CALM      30.22S
COFFEYVILLE    CLEAR     65  56  72 E3        30.20S
EMPORIA        PTCLDY    63  53  70 SE7       30.20S
GROVE OK       PTCLDY    64  57  77 CALM      30.22R
SILOAM SPRINGS CLEAR     64  48  55 NE3       30.22S
HARRISON AR    CLEAR     61  52  72 CALM      30.23R
NEAR YELLVILLE CLEAR     64  48  55 CALM      30.22R

......KANSAS AND MISSOURI......

CITY           SKY/WX    TMP DP  RH WIND       PRES   REMARKS
KANSAS CTY INT MOCLDY    67  51  56 E9        30.22S
DOWNTOWN KC    MOCLDY    69  52  54 SE7       30.21S
COLUMBIA       PTCLDY    62  50  64 NE5       30.25R
SEDALIA        CLEAR     65  52  62 CALM      30.24S
ST JOSEPH      PTCLDY    64  53  67 SE6       30.21S
ST LOUIS       PTCLDY    65  49  56 CALM      30.24R
SPIRIT OF STL  CLEAR     57  52  83 CALM      30.23R
KIRKSVILLE     CLEAR     56  52  86 CALM      30.26R
WICHITA        PTCLDY    70  47  43 S9        30.19R
TOPEKA         PTCLDY    64  53  67 E3        30.21R
OLATHE         PTCLDY    65  53  65 SE5       30.22S

......TENNESSEE......

CITY           SKY/WX    TMP DP  RH WIND       PRES   REMARKS
MEMPHIS        PTCLDY    69  53  56 N8        30.17R
NASHVILLE      CLEAR     64  46  52 NE7       30.19R

......ARKANSAS.......

CITY           SKY/WX    TMP DP  RH WIND       PRES   REMARKS
FAYETTEVILLE   PTCLDY    60  55  83 CALM      30.21S
FT SMITH       CLEAR     70  55  59 SE5       30.17S
LITTLE ROCK    PTCLDY    67  52  58 NE5       30.18R

......OKLAHOMA.......

CITY           SKY/WX    TMP DP  RH WIND       PRES   REMARKS
TULSA          PTCLDY    70  52  52 E5        30.18S
PONCA CITY     CLEAR     69  49  48 E6        30.19R
MCALESTER      PTCLDY    68  53  58 CALM      30.18R
OKLAHOMA CITY  MOCLDY    70  49  47 SE7       30.17S

......IOWA............

CITY           SKY/WX    TMP DP  RH WIND       PRES   REMARKS
DES MOINES     PTCLDY    66  51  58 S6        30.22R
QUAD CITIES    CLEAR     55  48  77 CALM      30.24R

......ILLINOIS........

CITY           SKY/WX    TMP DP  RH WIND       PRES   REMARKS
QUINCY         CLEAR     66  45  46 E3        30.25R
CHICAGO        CLEAR     59  44  57 SE9       30.24R



USA.gov is the U.S. government's official web portal to all federal, state and local government web resources and services.